Time,TemperatureF,DewpointF,PressureIn,WindDirection,WindDirectionDegrees,WindSpeedMPH,WindSpeedGustMPH,Humidity,HourlyPrecipIn,Conditions,Clouds,dailyrainin,SolarRadiationWatts/m^2,SoftwareType,DateUTC
2013-01-29 00:10:00,50.6,48.0,30.21,SW,227,3.0,12.0,89,0.00,,,0.02,0,weatherlink.com 1.10,2013-01-29 05:10:00,
2013-01-29 00:25:00,50.5,48.0,30.22,WNW,302,0.0,8.0,90,0.00,,,0.02,0,weatherlink.com 1.10,2013-01-29 05:25:00,
2013-01-29 00:40:00,50.5,48.0,30.21,SSW,207,1.0,9.0,90,0.00,,,0.02,0,weatherlink.com 1.10,2013-01-29 05:40:00,
2013-01-29 00:54:00,50.5,48.0,30.20,SSW,213,3.0,12.0,91,0.00,,,0.02,0,weatherlink.com 1.10,2013-01-29 05:54:00,
2013-01-29 01:11:00,50.6,48.0,30.20,SW,219,3.0,12.0,91,0.00,,,0.02,0,weatherlink.com 1.10,2013-01-29 06:11:00,
2013-01-29 01:25:00,50.6,48.0,30.20,West,273,5.0,10.0,91,0.00,,,0.02,0,weatherlink.com 1.10,2013-01-29 06:25:00,
2013-01-29 01:40:00,50.6,48.0,30.19,SSW,196,1.0,11.0,91,0.00,,,0.02,0,weatherlink.com 1.10,2013-01-29 06:40:00,
2013-01-29 01:55:00,50.6,48.0,30.19,WSW,250,3.0,9.0,91,0.00,,,0.02,0,weatherlink.com 1.10,2013-01-29 06:55:00,
2013-01-29 02:11:00,50.7,48.0,30.19,SSW,211,2.0,9.0,91,0.00,,,0.02,0,weatherlink.com 1.10,2013-01-29 07:11:00,
2013-01-29 02:25:00,50.6,48.0,30.19,WSW,248,0.0,5.0,91,0.00,,,0.02,0,weatherlink.com 1.10,2013-01-29 07:25:00,
2013-01-29 02:40:00,50.6,48.0,30.19,WSW,244,1.0,6.0,91,0.00,,,0.02,0,weatherlink.com 1.10,2013-01-29 07:40:00,
2013-01-29 02:56:00,50.4,48.0,30.19,WSW,243,0.0,4.0,91,0.00,,,0.02,0,weatherlink.com 1.10,2013-01-29 07:56:00,
2013-01-29 03:11:00,50.0,48.0,30.19,SW,221,2.0,4.0,92,0.00,,,0.02,0,weatherlink.com 1.10,2013-01-29 08:11:00,
2013-01-29 03:26:00,49.7,48.0,30.18,SW,221,0.0,3.0,92,0.00,,,0.02,0,weatherlink.com 1.10,2013-01-29 08:26:00,
2013-01-29 03:40:00,49.5,47.0,30.18,SW,221,0.0,3.0,92,0.00,,,0.02,0,weatherlink.com 1.10,2013-01-29 08:40:00,
2013-01-29 03:56:00,49.2,47.0,30.17,SSW,201,0.0,5.0,92,0.00,,,0.02,0,weatherlink.com 1.10,2013-01-29 08:56:00,
2013-01-29 04:11:00,48.9,47.0,30.17,SSW,200,5.0,5.0,93,0.00,,,0.02,0,weatherlink.com 1.10,2013-01-29 09:11:00,
2013-01-29 04:26:00,48.9,47.0,30.16,West,259,1.0,4.0,93,0.00,,,0.02,0,weatherlink.com 1.10,2013-01-29 09:26:00,
2013-01-29 04:42:00,48.8,47.0,30.17,SW,219,0.0,2.0,93,0.00,,,0.02,0,weatherlink.com 1.10,2013-01-29 09:42:00,
2013-01-29 04:57:00,48.4,47.0,30.16,SW,225,2.0,4.0,94,0.00,,,0.02,0,weatherlink.com 1.10,2013-01-29 09:57:00,
2013-01-29 05:11:00,48.2,47.0,30.17,SSW,199,2.0,7.0,94,0.00,,,0.02,0,weatherlink.com 1.10,2013-01-29 10:11:00,
2013-01-29 05:26:00,47.8,46.0,30.17,SSW,200,0.0,6.0,94,0.00,,,0.02,0,weatherlink.com 1.10,2013-01-29 10:26:00,
2013-01-29 05:41:00,47.7,46.0,30.17,SSW,212,3.0,5.0,94,0.00,,,0.02,0,weatherlink.com 1.10,2013-01-29 10:41:00,
2013-01-29 05:57:00,47.6,46.0,30.17,WSW,258,4.0,9.0,94,0.00,,,0.02,0,weatherlink.com 1.10,2013-01-29 10:57:00,
2013-01-29 06:11:00,47.6,46.0,30.17,SSW,193,2.0,5.0,95,0.00,,,0.02,0,weatherlink.com 1.10,2013-01-29 11:11:00,
2013-01-29 06:26:00,47.6,46.0,30.17,WSW,244,0.0,4.0,95,0.00,,,0.00,0,weatherlink.com 1.10,2013-01-29 11:26:00,
2013-01-29 06:42:00,47.5,46.0,30.17,SW,236,2.0,5.0,95,0.00,,,0.00,0,weatherlink.com 1.10,2013-01-29 11:42:00,
2013-01-29 06:57:00,47.4,46.0,30.18,WSW,254,2.0,6.0,94,0.00,,,0.00,0,weatherlink.com 1.10,2013-01-29 11:57:00,
2013-01-29 07:12:00,47.0,45.0,30.18,SSW,208,3.0,5.0,94,0.00,,,0.00,0,weatherlink.com 1.10,2013-01-29 12:12:00,
2013-01-29 07:27:00,46.9,46.0,30.18,SW,232,2.0,7.0,95,0.00,,,0.00,7,weatherlink.com 1.10,2013-01-29 12:27:00,
2013-01-29 07:42:00,46.8,45.0,30.18,SW,229,0.0,3.0,94,0.00,,,0.00,19,weatherlink.com 1.10,2013-01-29 12:42:00,
2013-01-29 07:58:00,46.7,45.0,30.18,SW,221,0.0,5.0,95,0.00,,,0.00,39,weatherlink.com 1.10,2013-01-29 12:58:00,
2013-01-29 08:12:00,46.9,46.0,30.19,SW,225,1.0,5.0,95,0.00,,,0.00,95,weatherlink.com 1.10,2013-01-29 13:12:00,
2013-01-29 08:27:00,47.7,46.0,30.19,SSW,208,2.0,6.0,95,0.00,,,0.00,91,weatherlink.com 1.10,2013-01-29 13:27:00,
2013-01-29 08:42:00,49.7,48.0,30.19,South,191,3.0,8.0,93,0.00,,,0.00,211,weatherlink.com 1.10,2013-01-29 13:42:00,
2013-01-29 08:58:00,50.7,48.0,30.19,SW,234,2.0,9.0,90,0.00,,,0.00,253,weatherlink.com 1.10,2013-01-29 13:58:00,
2013-01-29 09:13:00,51.0,48.0,30.19,WNW,293,0.0,9.0,89,0.00,,,0.00,264,weatherlink.com 1.10,2013-01-29 14:13:00,
2013-01-29 09:43:00,54.2,50.0,30.18,SSW,196,2.0,7.0,84,0.00,,,0.00,364,weatherlink.com 1.10,2013-01-29 14:43:00,
2013-01-29 09:58:00,55.9,50.0,30.18,SSW,207,3.0,7.0,81,0.00,,,0.00,394,weatherlink.com 1.10,2013-01-29 14:58:00,
2013-01-29 10:13:00,57.4,51.0,30.18,SSW,200,3.0,8.0,80,0.00,,,0.00,439,weatherlink.com 1.10,2013-01-29 15:13:00,
2013-01-29 10:28:00,59.0,51.0,30.19,WSW,240,3.0,7.0,76,0.00,,,0.00,471,weatherlink.com 1.10,2013-01-29 15:28:00,
2013-01-29 10:43:00,59.9,52.0,30.18,WSW,253,4.0,8.0,75,0.00,,,0.00,499,weatherlink.com 1.10,2013-01-29 15:43:00,
2013-01-29 10:58:00,60.8,52.0,30.18,SW,226,2.0,9.0,74,0.00,,,0.00,519,weatherlink.com 1.10,2013-01-29 15:58:00,
2013-01-29 11:13:00,62.3,54.0,30.18,SSW,196,3.0,9.0,73,0.00,,,0.00,540,weatherlink.com 1.10,2013-01-29 16:13:00,
2013-01-29 11:28:00,63.7,54.0,30.17,WSW,240,5.0,8.0,71,0.00,,,0.00,557,weatherlink.com 1.10,2013-01-29 16:28:00,
2013-01-29 11:44:00,65.3,55.0,30.16,West,263,4.0,7.0,70,0.00,,,0.00,577,weatherlink.com 1.10,2013-01-29 16:44:00,
2013-01-29 11:59:00,65.4,55.0,30.15,WSW,258,5.0,11.0,69,0.00,,,0.00,591,weatherlink.com 1.10,2013-01-29 16:59:00,
2013-01-29 12:13:00,67.2,57.0,30.14,South,182,4.0,10.0,69,0.00,,,0.00,557,weatherlink.com 1.10,2013-01-29 17:13:00,
2013-01-29 12:28:00,67.1,55.0,30.12,WSW,252,6.0,12.0,66,0.00,,,0.00,496,weatherlink.com 1.10,2013-01-29 17:28:00,
2013-01-29 12:44:00,68.0,56.0,30.12,South,184,5.0,10.0,66,0.00,,,0.00,601,weatherlink.com 1.10,2013-01-29 17:44:00,
2013-01-29 12:59:00,69.0,57.0,30.11,West,265,6.0,14.0,66,0.00,,,0.00,584,weatherlink.com 1.10,2013-01-29 17:59:00,
2013-01-29 13:14:00,70.5,57.0,30.10,SW,229,3.0,11.0,63,0.00,,,0.00,555,weatherlink.com 1.10,2013-01-29 18:14:00,
2013-01-29 13:29:00,69.7,57.0,30.09,SW,225,5.0,13.0,65,0.00,,,0.00,436,weatherlink.com 1.10,2013-01-29 18:29:00,
2013-01-29 13:44:00,70.1,58.0,30.09,West,265,4.0,9.0,66,0.00,,,0.00,348,weatherlink.com 1.10,2013-01-29 18:44:00,
2013-01-29 13:59:00,71.0,59.0,30.08,SSW,197,1.0,7.0,65,0.00,,,0.00,350,weatherlink.com 1.10,2013-01-29 18:59:00,
2013-01-29 14:14:00,71.6,59.0,30.07,SSW,211,5.0,8.0,64,0.00,,,0.00,297,weatherlink.com 1.10,2013-01-29 19:14:00,
2013-01-29 14:29:00,72.2,59.0,30.07,SW,222,2.0,9.0,63,0.00,,,0.00,476,weatherlink.com 1.10,2013-01-29 19:29:00,
2013-01-29 14:44:00,72.6,59.0,30.07,SSE,150,3.0,9.0,63,0.00,,,0.00,443,weatherlink.com 1.10,2013-01-29 19:44:00,
2013-01-29 14:59:00,72.9,59.0,30.06,West,271,3.0,9.0,61,0.00,,,0.00,408,weatherlink.com 1.10,2013-01-29 19:59:00,
2013-01-29 15:14:00,73.7,59.0,30.06,SW,221,1.0,10.0,61,0.00,,,0.00,352,weatherlink.com 1.10,2013-01-29 20:14:00,
2013-01-29 15:29:00,73.4,58.0,30.06,WSW,257,3.0,9.0,59,0.00,,,0.00,299,weatherlink.com 1.10,2013-01-29 20:29:00,
2013-01-29 15:44:00,73.7,58.0,30.06,SW,215,2.0,7.0,59,0.00,,,0.00,262,weatherlink.com 1.10,2013-01-29 20:44:00,
2013-01-29 15:59:00,73.8,58.0,30.06,South,188,0.0,7.0,58,0.00,,,0.00,253,weatherlink.com 1.10,2013-01-29 20:59:00,
2013-01-29 16:14:00,72.6,58.0,30.06,SSW,205,0.0,7.0,61,0.00,,,0.00,192,weatherlink.com 1.10,2013-01-29 21:14:00,
2013-01-29 16:29:00,72.3,58.0,30.06,SSW,200,3.0,8.0,61,0.00,,,0.00,90,weatherlink.com 1.10,2013-01-29 21:29:00,
2013-01-29 16:44:00,71.8,58.0,30.06,SSW,198,4.0,10.0,62,0.00,,,0.00,118,weatherlink.com 1.10,2013-01-29 21:44:00,
2013-01-29 16:59:00,71.3,58.0,30.06,South,186,3.0,7.0,63,0.00,,,0.00,65,weatherlink.com 1.10,2013-01-29 21:59:00,
2013-01-29 17:14:00,70.7,58.0,30.06,ESE,118,0.0,6.0,64,0.00,,,0.00,32,weatherlink.com 1.10,2013-01-29 22:14:00,
2013-01-29 17:29:00,69.8,58.0,30.06,SW,218,0.0,5.0,66,0.00,,,0.00,11,weatherlink.com 1.10,2013-01-29 22:29:00,
2013-01-29 17:44:00,68.9,58.0,30.05,SSW,192,0.0,4.0,68,0.00,,,0.00,0,weatherlink.com 1.10,2013-01-29 22:44:00,
2013-01-29 17:59:00,67.8,58.0,30.05,SSW,210,0.0,5.0,70,0.00,,,0.00,0,weatherlink.com 1.10,2013-01-29 22:59:00,
2013-01-29 18:14:00,66.8,57.0,30.05,SSW,210,0.0,1.0,72,0.00,,,0.00,0,weatherlink.com 1.10,2013-01-29 23:14:00,
2013-01-29 18:31:00,65.9,57.0,30.05,SSW,210,0.0,1.0,74,0.00,,,0.00,0,weatherlink.com 1.10,2013-01-29 23:31:00,
2013-01-29 18:44:00,65.4,57.0,30.05,SSW,210,0.0,0.0,75,0.00,,,0.00,0,weatherlink.com 1.10,2013-01-29 23:44:00,
2013-01-29 18:59:00,64.7,57.0,30.05,SSW,210,0.0,1.0,76,0.00,,,0.00,0,weatherlink.com 1.10,2013-01-29 23:59:00,
2013-01-29 19:15:00,63.8,56.0,30.05,SSW,210,0.0,1.0,77,0.00,,,0.00,0,weatherlink.com 1.10,2013-01-30 00:15:00,
2013-01-29 19:30:00,63.6,57.0,30.04,SSW,210,0.0,2.0,78,0.00,,,0.00,0,weatherlink.com 1.10,2013-01-30 00:30:00,
2013-01-29 19:45:00,63.5,57.0,30.04,SSW,210,1.0,2.0,78,0.00,,,0.00,0,weatherlink.com 1.10,2013-01-30 00:45:00,
2013-01-29 20:00:00,63.0,56.0,30.04,SE,140,2.0,5.0,78,0.00,,,0.00,0,weatherlink.com 1.10,2013-01-30 01:00:00,
2013-01-29 20:14:00,63.2,56.0,30.04,SSE,161,0.0,4.0,78,0.00,,,0.00,0,weatherlink.com 1.10,2013-01-30 01:14:00,
2013-01-29 20:31:00,63.4,56.0,30.05,SSE,163,0.0,4.0,78,0.00,,,0.00,0,weatherlink.com 1.10,2013-01-30 01:31:00,
2013-01-29 20:46:00,63.5,57.0,30.05,SSW,194,3.0,6.0,78,0.00,,,0.00,0,weatherlink.com 1.10,2013-01-30 01:46:00,
2013-01-29 21:01:00,63.6,57.0,30.05,South,186,0.0,5.0,78,0.00,,,0.00,0,weatherlink.com 1.10,2013-01-30 02:01:00,
2013-01-29 21:14:00,63.7,57.0,30.04,SE,135,0.0,4.0,79,0.00,,,0.00,0,weatherlink.com 1.10,2013-01-30 02:14:00,
2013-01-29 21:31:00,63.8,57.0,30.05,South,190,3.0,6.0,79,0.00,,,0.00,0,weatherlink.com 1.10,2013-01-30 02:31:00,
2013-01-29 21:45:00,63.9,57.0,30.05,SSE,165,2.0,6.0,79,0.00,,,0.00,0,weatherlink.com 1.10,2013-01-30 02:45:00,
2013-01-29 22:01:00,63.8,58.0,30.04,SW,217,0.0,5.0,80,0.00,,,0.00,0,weatherlink.com 1.10,2013-01-30 03:01:00,
2013-01-29 22:16:00,63.5,58.0,30.05,SW,216,0.0,3.0,81,0.00,,,0.00,0,weatherlink.com 1.10,2013-01-30 03:16:00,
2013-01-29 22:31:00,63.1,58.0,30.05,SW,216,0.0,0.0,82,0.00,,,0.00,0,weatherlink.com 1.10,2013-01-30 03:31:00,
2013-01-29 22:45:00,62.7,58.0,30.06,SW,216,0.0,2.0,83,0.00,,,0.00,0,weatherlink.com 1.10,2013-01-30 03:45:00,
2013-01-29 23:00:00,62.0,57.0,30.06,SW,216,0.0,1.0,84,0.00,,,0.00,0,weatherlink.com 1.10,2013-01-30 04:00:00,
2013-01-29 23:16:00,61.7,57.0,30.05,SSE,161,0.0,4.0,85,0.00,,,0.00,0,weatherlink.com 1.10,2013-01-30 04:16:00,
2013-01-29 23:30:00,62.0,58.0,30.03,SSE,153,4.0,7.0,85,0.00,,,0.00,0,weatherlink.com 1.10,2013-01-30 04:30:00,
2013-01-29 23:46:00,62.3,58.0,30.03,South,178,1.0,7.0,85,0.00,,,0.00,0,weatherlink.com 1.10,2013-01-30 04:46:00,